Regional Weather Roundup
Issued by NWS

Home | Current Version | Previous Version | Text Only | Print | Product List | Glossary Off
Versions: 1 2 3 4 5 6 7 8 9 10 11 12 13 14 15 16 17 18 19 20 21 22 23 24 25 26 27

000
ASUS45 KPSR 282110
RWRAZ

ARIZONA HOURLY REGIONAL WEATHER ROUNDUP
NATIONAL WEATHER SERVICE PHOENIX AZ
200 PM MST SAT MAY 28 2016

NOTE: FAIR INDICATES FEW OR NO CLOUDS BELOW 12,000 FEET WITH NO
SIGNIFICANT WEATHER AND/OR OBSTRUCTIONS TO VISIBILITY.

AZZ001>003-036-282200-
NORTHWEST ARIZONA

CITY           SKY/WX    TMP DP  RH WIND       PRES   REMARKS
BULLHEAD CITY  MOSUNNY   95  30  10 SW13      29.76F
KINGMAN        MOSUNNY   83  27  13 W8G18     29.91F
$$

AZZ004>008-015-016-018-282200-
NORTH CENTRAL ARIZONA

CITY           SKY/WX    TMP DP  RH WIND       PRES   REMARKS
GRAND CANYON   CLOUDY    69  26  20 E5        30.10F
WILLIAMS       MOSUNNY   72  27  18 S10G17    30.17S
PRESCOTT       MOSUNNY   79  22  12 VRB6      29.99F
FLAGSTAFF      MOSUNNY   66  27  23 S9        30.12S
PAYSON         SUNNY     79  10   7 VRB6G20   30.04F
PAGE           SUNNY     83  27  13 N7        29.96F
$$

AZZ009>014-017-282200-
NORTHEAST ARIZONA

CITY           SKY/WX    TMP DP  RH WIND       PRES   REMARKS
WINSLOW        SUNNY     82  20  10 SE13G22   29.98F
SAINT JOHNS    SUNNY     80  20  10 SW8G20    29.99F
WINDOW ROCK    PTSUNNY   74  21  13 VRB5      30.10F
SHOW LOW       SUNNY     73  16  11 SW17G24   30.08F
$$

AZZ023-282200-
GREATER PHOENIX AREA

CITY           SKY/WX    TMP DP  RH WIND       PRES   REMARKS
PHOENIX        MOSUNNY   94  28   9 S5        29.76F
BUCKEYE        SUNNY     91  30  11 SW3       29.79F
GLENDALE       SUNNY     93  27   9 SE8G18    29.79F
LUKE AFB       SUNNY     94  28   9 VRB7      29.76F
DEER VALLEY    SUNNY     91  26   9 VRB3      29.79F
SCOTTSDALE     SUNNY     93  23   8 SW12      29.80F
MESA-FALCON    SUNNY    N/A N/A N/A S12       29.75F
MESA-GATEWAY   SUNNY     91  28  10 SW7       29.79F
CHANDLER       SUNNY     93  28  10 E9        29.78F
$$

AZZ027-028-282200-
SOUTHWEST MARICOPA COUNTY AND PINAL COUNTY

CITY           SKY/WX    TMP DP  RH WIND       PRES   REMARKS
CASA GRANDE    SUNNY     91  30  11 NE6       29.80F
GILA BEND      FAIR      94  29   9 SW10      29.75F
$$

AZZ503-504-507>509-282200-
SOUTHEAST ARIZONA

CITY           SKY/WX    TMP DP  RH WIND       PRES   REMARKS
TUCSON         SUNNY     91  13   5 SW8       29.86F
DAVIS-MONTHAN  SUNNY     91  16   6 SW7       29.84F
RYAN FIELD     SUNNY     91  12   5 CALM      29.85F
NOGALES        SUNNY     88  11   5 S13G21    29.94F
SIERRA VISTA   SUNNY     83  10   6 SE5G20    29.99F
DOUGLAS        SUNNY     85   9   5 SE9       29.95F
SAFFORD        SUNNY     89  18   7 CALM      29.87F
$$

AZZ020-021-025-026-031-282200-
SOUTHWEST ARIZONA

CITY           SKY/WX    TMP DP  RH WIND       PRES   REMARKS
YUMA           SUNNY     94  35  12 S8G17     29.75F
$$

CAZ031-033-041-043-047-048-061-282200-
SOUTHERN CALIFORNIA

CITY           SKY/WX    TMP DP  RH WIND       PRES   REMARKS
DOWNTOWN L.A.  SUNNY     72  57  59 CALM      29.87F
L.A. AIRPORT   PTSUNNY   67  56  67 W13       29.89F
SAN DIEGO      PTSUNNY   66  56  70 W9        29.91S
BURBANK        SUNNY     73  55  53 VRB7      29.87F
ONTARIO        PTSUNNY   77  52  41 W9        29.86F
RIVERSIDE      SUNNY     79  51  37 W10       29.85F
PALM SPRINGS   MOSUNNY   93  39  15 SE10G20   29.77F
EL CENTRO NAS  MOSUNNY   93  40  15 E8        29.74F
IMPERIAL       SUNNY     95  46  18 SE12G17   29.72F
BLYTHE         SUNNY     95  33  11 S18G24    29.75F
NEEDLES        SUNNY     97  25   7 SW12G21   29.76F
$$

NVZ020-UTZ003-282200-
SOUTHERN NEVADA-UTAH

CITY           SKY/WX    TMP DP  RH WIND       PRES   REMARKS
LAS VEGAS      PTSUNNY   89  27  10 SE3       29.79F
SALT LAKE CITY MOSUNNY   73  42  32 N8        30.01F
$$

NMZ009-TXZ055-282200-
NEW MEXICO-WEST TEXAS

CITY           SKY/WX    TMP DP  RH WIND       PRES   REMARKS
ALBUQUERQUE    MOSUNNY   77  23  13 VRB5      30.06F
EL PASO        MOSUNNY   87  12   6 MISG      29.96F
$$


........................KEY........................
SKY/WX - SKY CONDITION/WEATHER
TMP    - TEMPERATURE IN FAHRENHEIT
DP     - DEW POINT IN FAHRENHEIT
RH     - RELATIVE HUMIDITY IN PERCENT
WIND   - DIRECTION AND SPEED IN MILES PER HOUR (MPH)
VRB    - VARIABLE WIND DIRECTION
PRES   - MEAN SEA LEVEL PRESSURE IN INCHES OF MERCURY
         F - FALLING PRESSURE   R - RISING PRESSURE
         S - STEADY PRESSURE
VSB    - VISIBILITY IN MILES
HX     - HEAT INDEX IN FAHRENHEIT
WCI    - WIND CHILL INDEX IN FAHRENHEIT
TC     - TEMPERATURE IN CELSIUS WHICH IS ALSO KNOWN AS
         TEMPERATURE IN CENTIGRADE
AFB    - AIR FORCE BASE
         LUKE AFB IS LUKE AIR FORCE BASE
         DAVIS-MONTHAN IS DAVIS-MONTHAN AIR FORCE BASE
NAS    - NAVAL AIR STATION
         EL CENTRO NAS IS EL CENTRO NAVAL AIR STATION
N/A    - NOT AVAILABLE





USA.gov is the U.S. government's official web portal to all federal, state and local government web resources and services.